Regional Weather Roundup
Issued by NWS

Home | Current Version | Previous Version | Text Only | Print | Product List | Glossary On
Versions: 1 2 3 4 5 6 7 8 9 10 11 12 13 14 15 16 17 18 19 20 21 22 23 24 25 26 27 28 29 30 31 32 33 34 35 36 37 38 39 40 41 42 43 44 45 46 47 48 49 50
653
ASUS43 KBIS 291210
RWRND
NORTH DAKOTA REGIONAL WEATHER ROUNDUP
NATIONAL WEATHER SERVICE EASTERN NORTH DAKOTA/GRAND FORKS ND
700 AM CDT THU JUN 29 2017

  NOTE: "FAIR" INDICATES FEW OR NO CLOUDS BELOW 12,000 FEET WITH NO
  SIGNIFICANT WEATHER AND/OR OBSTRUCTIONS TO VISIBILITY.

NDZ001>003-009>011-017-291300-
...NORTHWEST NORTH DAKOTA...

CITY           SKY/WX    TMP DP  RH WIND       PRES   REMARKS
WILLISTON      FAIR      55  48  77 CALM      29.81R
6HR MIN TEMP:  50; 6HR MAX TEMP:  61;

MINOT          MOCLDY    58  51  78 SW5       29.80R
MINOT AFB      FAIR      53  50  90 W3        29.79R
6HR MIN TEMP:  49; 6HR MAX TEMP:  53;

$$

NDZ018>021-031>035-040>046-291300-
...SOUTHWEST NORTH DAKOTA...

CITY           SKY/WX    TMP DP  RH WIND       PRES   REMARKS
BISMARCK       FAIR      60  55  83 CALM      29.80S
DICKINSON      FAIR      58  44  60 CALM      29.79R
GARRISON         N/A     55  52  89 CALM      29.79S
HETTINGER      FAIR      57  48  72 S3        29.82F
$$

NDZ004>008-012>016-024-026-027-054-291300-
...NORTHEAST NORTH DAKOTA...

CITY           SKY/WX    TMP DP  RH WIND       PRES   REMARKS
GRAND FORKS    CLOUDY    61  61 100 NE6       29.74F FOG
GRAND FORKS AF CLOUDY    61  61 100 NE3       29.75F
DEVILS LAKE    FAIR      57  57 100 CALM      29.77F
$$

NDZ022-023-025-028>030-036>039-047>053-291300-
...SOUTHEAST NORTH DAKOTA...

CITY           SKY/WX    TMP DP  RH WIND       PRES   REMARKS
JAMESTOWN      FAIR      57  54  89 NW3       29.76R
FARGO          CLOUDY    62  60  93 N7        29.74S
WAHPETON       CLOUDY    61  55  82 N8        29.73F
$$




USA.gov is the U.S. government's official web portal to all federal, state and local government web resources and services.